Вернуться в каталог

SL-8 R/B

АктивенLEO
NORAD 5847·ROCKET BODY·🇷🇺 Russia

Запущен Feb 25, 1972 с Plesetsk Cosmodrome

Loading…

Ближайшие Пролёты (ближайшие 24 часа)

TLE

СвежийSource: Space-Track

Эпоха: Sep 14, 2026, 05:49 UTC

1 05847U 72009B   26257.24282721  .00000051  00000-0  70905-4 0  9993
2 05847  74.0498 180.8517 0029186  76.8594  84.8309 13.79467166745269

Отслеживайте SL-8 R/B в реальном времени с AllMySat

Download on the App Store